Weather in Daryinskoe

Kazakhstan     51°21′15″N   51°45′04″E
temp.,
°C
wind,
m/s
gust,
m/s
humid.,
%
clouds,
%
prec.,
mm/h
press.,
hPa
HPBL,
m
22 january, fri
fri2223:00−19sw4897100 0.0 1025197
02:00−17sw5897100 0.1 1024197
05:00−15sw5896100 1.1 1023264
08:00−13ssw61195100 1.3 1021355
11:00−12sw5994100 1.8 1021492
14:00−11wsw4692100 0.1 1021473
17:00−13wsw3396100 0.1 102180
20:00−16wsw239696 0.0 102220
23 january, sat
sat2323:00−16w119696 0.0 102420
02:00−13e0194100 0.0 102520
05:00−13ese2396100 0.2 102571
08:00−12se3595100 0.4 1027154
11:00−11se5794100 0.7 1027264
14:00−9sse5994100 0.5 1027291
17:00−7sse5895100 0.9 1027250
20:00−4s5896100 0.7 1027180
24 january, sun
sun2423:00+1sw59100100 1.1 1026241
02:00+1sw611100100 0.4 1027340
05:000sw71198100 1.1 1026399
08:00−3sw51194100 0.1 1027287
11:00−2sw61093100 0.3 1029306
14:000sw61095100 0.0 1029383
17:000ssw5995100 0.0 1029303
20:00−2ssw5997100 0.0 1031204
25 january, mon
mon2523:00−3s4896100 0.0 1031170
02:00−1s579797 0.0 1031342
05:00−1s579798 0.0 1031396
08:00−1sse4796100 0.0 1031379
11:00−1sse5895100 0.0 1031421
14:00−1sse6994100 0.0 1031439
17:00−1sse6996100 0.0 1030452
20:00−2sse61094100 0.0 1030462
26 january, tue
tue2623:000sse71193100 0.0 1030550
02:00−1sse61093100 0.0 1030542
05:00−3sse61195100 0.0 1030315
08:00−5sse51195100 0.0 1030271
11:00−6sse5109598 0.0 1030274
14:00−4sse599395 0.0 1030348
17:00−6se599378 0.0 1029272
20:00−7se4109477 0.0 1029230